Tracking 23726 objects as of 22-Sep-2021
HD Live streaming from Space Station
objects crossing your sky now

STARLINK-1751

Track STARLINK-1751 now!
10-day predictions
STARLINK-1751 is classified as:


NORAD ID: 46378
Int'l Code: 2020-062BF
Perigee: 553.1 km
Apogee: 555.5 km
Inclination: 53.1 °
Period: 95.6 minutes
Semi major axis: 6925 km
RCS: Unknown
Launch date: September 3, 2020
Source: United States (US)
Launch site: AIR FORCE EASTERN TEST RANGE (AFETR)
aabbcc
Your satellite tracking list
Your tracking list is empty




NASA's NSSDC Master Catalog

Two Line Element Set (TLE):
1 46378U 20062BF  21264.87796825  .00000112  00000-0  26419-4 0  9995
2 46378  53.0559  88.1381 0001738  98.3704 261.7482 15.06403234 59288
Source of the keplerian elements: AFSPC